Location: Newark
(35.2161°N, 26.1013°E)
Time: 13:57:08
(UTC+00:00)

ITAMSAT 1 - Visible Passes

Search period start: 25 January 2020 00:00
Search period end: 04 February 2020 00:00
Orbit: 783 x 797 km, 98.9° (Epoch: 24 January)

Date Brightness Start Highest point End Pass type
(mag) Time Alt. Az. Time Alt. Az. Time Alt. Az.
25 Jan 8.4 03:33:51 10° NNE 03:38:56 54° E 03:44:00 10° S visible
25 Jan 10.9 16:31:05 10° WSW 16:33:25 13° W 16:35:46 10° WNW visible
26 Jan 9.7 03:05:00 10° NE 03:09:23 27° E 03:13:45 10° SSE visible
26 Jan 8.4 04:44:14 10° N 04:48:45 31° WNW 04:53:14 10° SW visible
26 Jan 10.2 15:59:27 10° SSW 16:03:44 26° W 16:08:03 10° NW visible
27 Jan 10.6 02:37:10 10° ENE 02:39:43 14° E 02:42:14 10° ESE visible
27 Jan 7.7 04:14:22 10° N 04:19:28 60° WNW 04:24:34 10° SSW visible
28 Jan 7.9 03:44:54 10° NNE 03:50:05 70° ESE 03:55:16 10° S visible
29 Jan 9.3 03:15:51 10° NNE 03:20:34 35° E 03:25:17 10° SSE visible
29 Jan 10.6 16:11:09 10° SW 16:14:57 21° W 16:18:46 10° NW visible
30 Jan 10.4 02:47:30 10° NE 02:50:57 18° E 02:54:22 10° SE visible
30 Jan 7.9 04:25:36 10° N 04:30:34 47° WNW 04:35:31 10° SW visible
31 Jan 7.6 03:56:00 10° NNE 04:01:13 89° ESE 04:06:26 10° SSW visible
01 Feb 8.8 03:26:46 10° NNE 03:31:45 45° E 03:36:42 10° S visible
01 Feb 10.8 16:23:04 10° SW 16:26:10 16° W 16:29:18 10° NW visible
02 Feb 10.0 02:58:07 10° NE 03:02:10 23° E 03:06:12 10° SSE visible
02 Feb 8.2 04:36:54 10° N 04:41:38 37° WNW 04:46:23 10° SW visible
03 Feb 10.9 02:31:08 10° ENE 02:32:27 11° E 02:33:47 10° ESE visible
03 Feb 7.6 04:07:09 10° N 04:12:20 73° WNW 04:17:31 10° SSW visible
